Atlanta, GA

3:54 PM EST on December 06, 2019 (GMT -0500)
The Hartsfield Atlanta International

Weather History for KATL - October, 2019

Change the Weather History Date:

Thursday, October 10, 2019

  Actual Average Record
Temperature  
Mean Temperature 70 °F 65 °F  
Max Temperature 79 °F 74 °F 88 °F (1939)
Min Temperature 62 °F 56 °F 36 °F (2000)
Degree Days  
Heating Degree Days 0 3  
Month to date heating degree days 0 18  
Since 1 July heating degree days 0 29  
Cooling Degree Days 6 3  
Month to date cooling degree days 130 35  
Year to date cooling degree days 2607 1840  
Growing Degree Days 20 (Base 50)    
Moisture  
Dew Point 57 °F    
Average Humidity 67    
Maximum Humidity 86    
Minimum Humidity 45    
Precipitation  
Precipitation 0.00 in 0.10 in 3.42 in (2018)
Month to date precipitation 0.00 1.27  
Year to date precipitation 32.33 39.57  
Sea Level Pressure  
Sea Level Pressure 30.14 in    
Wind  
Wind Speed 7 mph ()    
Max Wind Speed 14 mph    
Max Gust Speed 18 mph    
Visibility 10.0 miles    
Events      
T = Trace of Precipitation, MM = Missing Value Source: Averaged Metar Reports

Daily Weather History Graph

Daily Weather History Graph

Search for Another Location

Airport or City:

Astronomy

Oct. 10, 2019 Rise Set
Actual Time 7:38 AM EDT 7:10 PM EDT
Civil Twilight 7:13 AM EDT 7:35 PM EDT
Nautical Twilight 6:44 AM EDT 8:04 PM EDT
Astronomical Twilight 6:15 AM EDT 8:33 PM EDT
Moon 5:59 PM EDT (10/10) 4:34 AM EDT (10/10)
Length of Visible Light 12h 21m
Length of Day
11h 31m
Waxing Gibbous, 91% of the Moon is Illuminated
Oct 10
Waxing Gibbous
Oct 13
Full
Oct 21
Last Quarter
Oct 27
New
Nov 4
First Quarter

Hourly Weather History & Observations

Time (EDT) Temp. Dew Point Humidity Pressure Visibility Wind Dir Wind Speed Gust Speed Precip Events Conditions
12:52 AM 66.0 °F 57.9 °F 75% 30.13 in 10.0 mi East 8.1 mph - N/A   Partly Cloudy
1:52 AM 64.0 °F 57.9 °F 80% 30.13 in 10.0 mi East 5.8 mph - N/A   Partly Cloudy
2:52 AM 64.0 °F 57.9 °F 80% 30.13 in 10.0 mi East 9.2 mph - N/A   Mostly Cloudy
3:52 AM 63.0 °F 57.9 °F 84% 30.12 in 10.0 mi East 6.9 mph - N/A   Scattered Clouds
4:52 AM 63.0 °F 57.9 °F 84% 30.13 in 10.0 mi East 5.8 mph - N/A   Mostly Cloudy
5:52 AM 63.0 °F 57.0 °F 81% 30.14 in 10.0 mi East 9.2 mph - N/A   Partly Cloudy
6:52 AM 62.1 °F 57.0 °F 84% 30.16 in 10.0 mi East 9.2 mph - N/A   Scattered Clouds
7:52 AM 62.1 °F 57.9 °F 86% 30.16 in 10.0 mi East 11.5 mph - N/A   Scattered Clouds
8:52 AM 64.0 °F 57.9 °F 80% 30.18 in 10.0 mi ENE 9.2 mph - N/A   Scattered Clouds
9:52 AM 66.0 °F 57.9 °F 75% 30.19 in 10.0 mi East 11.5 mph - N/A   Scattered Clouds
10:52 AM 68.0 °F 59.0 °F 73% 30.19 in 10.0 mi East 10.4 mph - N/A   Scattered Clouds
11:52 AM 71.1 °F 59.0 °F 66% 30.19 in 10.0 mi East 10.4 mph - N/A   Mostly Cloudy
12:52 PM 71.1 °F 57.9 °F 63% 30.19 in 10.0 mi ENE 10.4 mph - N/A   Mostly Cloudy
1:52 PM 73.9 °F 57.9 °F 57% 30.17 in 10.0 mi East 9.2 mph - N/A   Mostly Cloudy
2:07 PM 73.9 °F 57.9 °F 57% 30.17 in 10.0 mi ENE 6.9 mph - N/A   Scattered Clouds
2:52 PM 77.0 °F 57.9 °F 52% 30.13 in 10.0 mi ESE 8.1 mph - N/A   Partly Cloudy
3:52 PM 77.0 °F 57.9 °F 52% 30.11 in 10.0 mi ESE 6.9 mph - N/A   Partly Cloudy
4:52 PM 78.1 °F 57.0 °F 48% 30.09 in 10.0 mi Variable 3.5 mph - N/A   Partly Cloudy
5:52 PM 78.1 °F 55.9 °F 46% 30.09 in 10.0 mi ENE 5.8 mph - N/A   Partly Cloudy
6:52 PM 75.9 °F 55.9 °F 50% 30.09 in 10.0 mi East 5.8 mph - N/A   Partly Cloudy
7:52 PM 75.0 °F 55.9 °F 51% 30.08 in 10.0 mi East 5.8 mph - N/A   Clear
8:52 PM 73.0 °F 55.9 °F 55% 30.09 in 10.0 mi East 4.6 mph - N/A   Clear
9:52 PM 71.1 °F 57.0 °F 61% 30.11 in 10.0 mi East 6.9 mph - N/A   Clear
10:52 PM 70.0 °F 55.9 °F 61% 30.12 in 10.0 mi East 5.8 mph - N/A   Clear
11:52 PM 68.0 °F 55.9 °F 65% 30.12 in 10.0 mi East 5.8 mph - N/A   Clear